Find Starlink 31641

NORAD ID: 59374 Int'l Des: 2024-062 Owner: SPXS Country: US Constellation: starlink operational
LEOCIRCULAR

当前视图

正在加载3D地球...

About Starlink 31641

Starlink 31641 (NORAD 59374) is a starlink constellation satellite (v2 mini) launched Apr 2, 2024 by SPXS of US. It operates in LEO, CIRCULAR orbit with a mass of 730.00 kg.

关于 Starlink 31641

正在加载描述...

即将过境

Passes for default location (London). Set your location on the main map for personalized predictions.

高度历史

Loading altitude history...

两行轨道根数

1 59374U 24062A 26166.29113452 -.00001901 00000-0 -45176-4 0 9990
2 59374 53.1588 163.8183 0001141 110.5517 249.5609 15.34372011124589
Epoch: Jun 15, 2026 • Age: 10 hours

当前状态

高度 466.5 km
速度 7.64 km/s
星下点 44.05°N, 138.47°E
发射日期 Apr 2, 2024
运行时间 2.2 years
类型 internet

技术详情

分类 Payload
质量 730.00 kg
干质量 700.00 kg
总质量 730.00 kg
长度 0.30 m
直径 4.10 m
跨度 29.00 m
形状 Box + pan
制造商 SPXS
平台类型 Starlink V2M
阶段状态 In Orbit
所有者/国家 SPXS/US

Most Searched